Regional Weather Roundup
Issued by NWS

Home | Current Version | Previous Version | Graphics & Text | Print | Product List | Glossary On
Versions: 1 2 3 4 5 6 7 8 9 10 11 12 13 14 15 16 17 18 19 20 21 22 23 24 25 26 27 28 29 30 31 32 33 34 35 36 37 38 39 40 41 42 43 44 45 46 47 48 49 50
000
ASUS43 KIND 262159
RWRIN

WEATHER ROUNDUP FOR INDIANA
NATIONAL WEATHER SERVICE INDIANAPOLIS IN
600 PM EDT THU APR 26 2018

NOTE: "FAIR" INDICATES FEW OR NO CLOUDS BELOW 12,000 FEET WITH NO
SIGNIFICANT WEATHER AND/OR OBSTRUCTIONS TO VISIBILITY.

* - STATION DOES NOT REPORT WEATHER SUCH AS PRECIPITATION OR FOG.

+ - STATION NOT QUALITY CONTROLLED BY THE NATIONAL WEATHER SERVICE.
    USE DATA WITH CAUTION...ESPECIALLY DEWPOINT AND RELATIVE
    HUMIDITY OBSERVATIONS.

INZ001>003-010>013-019-020-262300-
NORTHWEST INDIANA

CITY           SKY/WX    TMP DP  RH WIND       PRES   REMARKS
GARY /AIRPORT/ PTSUNNY   61  18  18 E12       29.89F
KNOX *+        FAIR      63  36  36 NW9       29.86F
MICHIGAN CITY+ FAIR      55  25  30 NE5       29.90F
MONTICELLO +   FAIR      65  26  22 NW3       29.86S
RENSSELAER +   FAIR      64  -9   5 N7        29.86F

$$

LMZ046-743>745-262300-
SOUTHERN LAKE MICHIGAN

STATION/POSITION TIME  TEMP    WIND        PRES    WAVE
                       AIR SEA DIR/SP/G            HT
                 (UTC) (F)     (DEG/KT/KT) (MB)    (FT)
BURNS HARBOR     2140   49      80/  8/  8 1012.9F
MICHIGAN CITY    2130   44      50/  7/  8   N/A

$$

INZ004-005-014>016-021>024-262300-
NORTH CENTRAL INDIANA

CITY           SKY/WX    TMP DP  RH WIND       PRES   REMARKS
ELKHART        FAIR      66  36  32 NW8       29.86F
GOSHEN         FAIR      62  36  37 W5        29.86F
ROCHESTER +    FAIR      66  34  30 NW6       29.87S
SOUTH BEND     FAIR      60  34  37 NW13      29.89F
WARSAW +       FAIR      63  34  34 W6        29.86F

$$

INZ006>009-017-018-025>027-262300-
NORTHEAST INDIANA

CITY           SKY/WX    TMP DP  RH WIND       PRES   REMARKS
ANGOLA *+      FAIR      63  34  34 NW7       29.85F
FORT WAYNE     FAIR      66  38  35 CALM      29.86F
KENDALLVILLE + FAIR      63  28  26 N7        29.86F

$$

INZ028-029-035-036-043>045-051>053-262300-
WEST CENTRAL INDIANA

CITY           SKY/WX    TMP DP  RH WIND       PRES   REMARKS
CRAWFORDSVL +  FAIR      62  33  32 NW3       29.86S
GREENCASTLE +  FAIR      63  30  29 NW3       29.87S
LAFAYETTE      FAIR      65  33  30 CALM      29.86F
TERRE HAUTE    FAIR      66  30  26 NW7       29.86F

$$

INZ030>032-037>040-046>048-054>057-064-065-262300-
CENTRAL INDIANA

CITY           SKY/WX    TMP DP  RH WIND       PRES   REMARKS
GREENWOOD *+   FAIR      64  31  29 CALM      29.86R
INDIANAPOLIS   FAIR      65  33  30 NW7       29.85S
-EAGLE CREEK   FAIR      66  35  31 VRB5      29.85S
KOKOMO +       FAIR      65  36  34 NW7       29.86F
MT COMFORT *+  FAIR      64  37  36 N6        29.86S
SHELBYVILLE    FAIR      66  32  28 NE6       29.85R
ZIONSVILLE +   FAIR      63  33  32 W5        29.86S

$$

INZ033-034-041-042-049-050-058-059-262300-
EAST CENTRAL INDIANA

CITY           SKY/WX    TMP DP  RH WIND       PRES   REMARKS
MUNCIE         FAIR      68  33  27 NW8       29.84S
RICHMOND +     FAIR      63  34  34 CALM      29.85R

$$

INZ060-061-067>069-081>083-085>088-262300-
SOUTHWEST INDIANA

CITY           SKY/WX    TMP DP  RH WIND       PRES   REMARKS
EVANSVILLE     FAIR      66  35  31 NW8G18    29.87S
HUNTINGBURG +  FAIR      65  34  31 NW8       29.87R

$$

INZ062-063-066-070>080-084-089>092-262300-
SOUTH CENTRAL AND SOUTHEAST INDIANA

CITY           SKY/WX    TMP DP  RH WIND       PRES   REMARKS
BLOOMINGTON    FAIR      66  32  28 N9        29.85S
FRENCH LICK *+ FAIR      64  14  14 W8G16     29.85S
MADISON *+     FAIR      68  19  15 N3        29.86S
SEYMOUR +      FAIR      66  36  32 NE5       29.85R

$$




USA.gov is the U.S. government's official web portal to all federal, state and local government web resources and services.